Time,TemperatureF,DewpointF,PressureIn,WindDirection,WindDirectionDegrees,WindSpeedMPH,WindSpeedGustMPH,Humidity,HourlyPrecipIn,Conditions,Clouds,dailyrainin,SoftwareType,DateUTC
2013-08-19 00:13:00,72.7,33.8,29.97,SSW,193,0.7,2.7,24,-99.99,,,-99.99,PyWeather,2013-08-19 06:13:00,
2013-08-19 00:18:00,72.7,33.8,29.97,SSW,193,0.7,2.7,24,-99.99,,,-99.99,PyWeather,2013-08-19 06:18:00,
2013-08-19 00:23:00,72.5,33.6,29.97,South,189,1.6,2.9,24,-99.99,,,-99.99,PyWeather,2013-08-19 06:23:00,
2013-08-19 00:28:00,72.5,33.6,29.97,South,189,1.6,2.9,24,-99.99,,,-99.99,PyWeather,2013-08-19 06:28:00,
2013-08-19 00:33:00,72.3,33.4,29.97,South,189,1.8,2.9,24,-99.99,,,-99.99,PyWeather,2013-08-19 06:33:00,
2013-08-19 00:38:00,72.3,33.4,29.97,South,189,1.8,2.9,24,-99.99,,,-99.99,PyWeather,2013-08-19 06:38:00,
2013-08-19 00:43:00,72.1,33.3,29.98,SSW,202,-999.0,1.3,24,-99.99,,,-99.99,PyWeather,2013-08-19 06:43:00,
2013-08-19 00:48:00,72.1,33.3,29.98,SSW,202,-999.0,1.3,24,-99.99,,,-99.99,PyWeather,2013-08-19 06:48:00,
2013-08-19 00:53:00,72.1,33.3,29.98,SSE,163,0.7,2.5,24,-99.99,,,-99.99,PyWeather,2013-08-19 06:53:00,
2013-08-19 00:58:00,72.1,33.3,29.98,SSE,163,0.7,2.5,24,-99.99,,,-99.99,PyWeather,2013-08-19 06:58:00,
2013-08-19 01:03:00,72.1,33.3,29.98,SSE,153,2.5,4.9,24,-99.99,,,-99.99,PyWeather,2013-08-19 07:03:00,
2013-08-19 01:08:00,72.1,33.3,29.98,SSE,153,2.5,4.9,24,-99.99,,,-99.99,PyWeather,2013-08-19 07:08:00,
2013-08-19 01:13:00,72.0,33.3,29.98,SSE,151,2.9,4.5,24,-99.99,,,-99.99,PyWeather,2013-08-19 07:13:00,
2013-08-19 01:18:00,72.0,33.3,29.98,SSE,151,2.9,4.5,24,-99.99,,,-99.99,PyWeather,2013-08-19 07:18:00,
2013-08-19 01:23:00,72.0,33.3,29.98,SSE,154,3.6,5.4,24,-99.99,,,-99.99,PyWeather,2013-08-19 07:23:00,
2013-08-19 01:28:00,72.0,33.3,29.98,SSE,154,3.6,5.4,24,-99.99,,,-99.99,PyWeather,2013-08-19 07:28:00,
2013-08-19 01:33:00,71.8,33.1,29.98,SSE,153,4.0,6.3,24,-99.99,,,-99.99,PyWeather,2013-08-19 07:33:00,
2013-08-19 01:38:00,71.8,33.1,29.98,SSE,153,4.0,6.3,24,-99.99,,,-99.99,PyWeather,2013-08-19 07:38:00,
2013-08-19 01:43:00,71.6,32.9,29.98,SSE,156,4.3,8.8,24,-99.99,,,-99.99,PyWeather,2013-08-19 07:43:00,
2013-08-19 01:48:00,71.6,32.9,29.98,SSE,156,4.3,8.8,24,-99.99,,,-99.99,PyWeather,2013-08-19 07:48:00,
2013-08-19 01:53:00,71.1,33.4,29.99,South,181,3.1,4.7,25,-99.99,,,-99.99,PyWeather,2013-08-19 07:53:00,
2013-08-19 01:58:00,71.1,33.4,29.99,South,181,3.1,4.7,25,-99.99,,,-99.99,PyWeather,2013-08-19 07:58:00,
2013-08-19 02:03:00,70.9,33.3,29.99,SSW,204,1.3,2.9,25,-99.99,,,-99.99,PyWeather,2013-08-19 08:03:00,
2013-08-19 02:08:00,70.9,33.3,29.99,SSW,204,1.3,2.9,25,-99.99,,,-99.99,PyWeather,2013-08-19 08:08:00,
2013-08-19 02:13:00,70.7,33.1,29.99,SSW,195,1.1,2.7,25,-99.99,,,-99.99,PyWeather,2013-08-19 08:13:00,
2013-08-19 02:18:00,70.7,33.1,29.99,SSW,195,1.1,2.7,25,-99.99,,,-99.99,PyWeather,2013-08-19 08:18:00,
2013-08-19 02:23:00,70.7,33.1,29.96,South,179,1.1,2.9,25,-99.99,,,-99.99,PyWeather,2013-08-19 08:23:00,
2013-08-19 02:28:00,70.7,33.1,29.96,South,179,1.1,2.9,25,-99.99,,,-99.99,PyWeather,2013-08-19 08:28:00,
2013-08-19 02:33:00,70.5,32.9,29.96,SSE,160,2.0,3.6,25,-99.99,,,-99.99,PyWeather,2013-08-19 08:33:00,
2013-08-19 02:38:00,70.5,32.9,29.96,SSE,160,2.0,3.6,25,-99.99,,,-99.99,PyWeather,2013-08-19 08:38:00,
2013-08-19 02:43:00,70.5,32.9,29.96,South,180,0.2,1.3,25,-99.99,,,-99.99,PyWeather,2013-08-19 08:43:00,
2013-08-19 02:48:00,70.5,32.9,29.96,South,180,0.2,1.3,25,-99.99,,,-99.99,PyWeather,2013-08-19 08:48:00,
2013-08-19 02:53:00,70.5,32.9,29.96,East,90,-999.0,-999.0,25,-99.99,,,-99.99,PyWeather,2013-08-19 08:53:00,
2013-08-19 02:58:00,70.5,32.9,29.96,East,90,-999.0,-999.0,25,-99.99,,,-99.99,PyWeather,2013-08-19 08:58:00,
2013-08-19 03:03:00,70.5,32.9,29.96,ENE,62,0.2,2.0,25,-99.99,,,-99.99,PyWeather,2013-08-19 09:03:00,
2013-08-19 03:08:00,70.5,32.9,29.96,ENE,62,0.2,2.0,25,-99.99,,,-99.99,PyWeather,2013-08-19 09:08:00,
2013-08-19 03:13:00,70.2,32.7,29.96,SSW,207,-999.0,1.3,25,-99.99,,,-99.99,PyWeather,2013-08-19 09:13:00,
2013-08-19 03:18:00,70.2,32.7,29.96,SSW,207,-999.0,1.3,25,-99.99,,,-99.99,PyWeather,2013-08-19 09:18:00,
2013-08-19 03:23:00,70.2,32.7,29.96,WSW,240,0.7,2.5,25,-99.99,,,-99.99,PyWeather,2013-08-19 09:23:00,
2013-08-19 03:28:00,70.2,32.7,29.96,WSW,240,0.7,2.5,25,-99.99,,,-99.99,PyWeather,2013-08-19 09:28:00,
2013-08-19 03:33:00,70.0,32.5,29.96,West,270,0.2,2.0,25,-99.99,,,-99.99,PyWeather,2013-08-19 09:33:00,
2013-08-19 03:38:00,70.0,32.5,29.96,West,270,0.2,2.0,25,-99.99,,,-99.99,PyWeather,2013-08-19 09:38:00,
2013-08-19 03:43:00,70.0,32.5,29.96,WSW,252,0.4,2.2,25,-99.99,,,-99.99,PyWeather,2013-08-19 09:43:00,
2013-08-19 03:48:00,70.0,32.5,29.96,WSW,252,0.4,2.2,25,-99.99,,,-99.99,PyWeather,2013-08-19 09:48:00,
2013-08-19 03:53:00,69.6,32.2,29.97,SW,236,1.1,3.1,25,-99.99,,,-99.99,PyWeather,2013-08-19 09:53:00,
2013-08-19 03:58:00,69.6,32.2,29.97,SW,236,1.1,3.1,25,-99.99,,,-99.99,PyWeather,2013-08-19 09:58:00,
2013-08-19 04:03:00,69.4,33.1,29.97,WNW,296,0.4,1.6,26,-99.99,,,-99.99,PyWeather,2013-08-19 10:03:00,
2013-08-19 04:08:00,69.4,33.1,29.97,WNW,296,0.4,1.6,26,-99.99,,,-99.99,PyWeather,2013-08-19 10:08:00,
2013-08-19 04:13:00,69.3,32.9,29.97,West,260,0.4,3.4,26,-99.99,,,-99.99,PyWeather,2013-08-19 10:13:00,
2013-08-19 04:18:00,69.3,32.9,29.97,West,260,0.4,3.4,26,-99.99,,,-99.99,PyWeather,2013-08-19 10:18:00,
2013-08-19 04:23:00,69.1,32.7,29.97,East,90,-999.0,-999.0,26,-99.99,,,-99.99,PyWeather,2013-08-19 10:23:00,
2013-08-19 04:28:00,69.1,32.7,29.97,East,90,-999.0,-999.0,26,-99.99,,,-99.99,PyWeather,2013-08-19 10:28:00,
2013-08-19 04:33:00,69.1,32.7,29.97,East,90,-999.0,-999.0,26,-99.99,,,-99.99,PyWeather,2013-08-19 10:33:00,
2013-08-19 04:38:00,69.1,32.7,29.97,East,90,-999.0,-999.0,26,-99.99,,,-99.99,PyWeather,2013-08-19 10:38:00,
2013-08-19 04:43:00,68.9,32.5,29.98,East,90,-999.0,-999.0,26,-99.99,,,-99.99,PyWeather,2013-08-19 10:43:00,
2013-08-19 04:48:00,68.9,32.5,29.98,East,90,-999.0,-999.0,26,-99.99,,,-99.99,PyWeather,2013-08-19 10:48:00,
2013-08-19 04:53:00,68.7,32.4,29.98,East,90,-999.0,-999.0,26,-99.99,,,-99.99,PyWeather,2013-08-19 10:53:00,
2013-08-19 04:58:00,68.7,32.4,29.98,East,90,-999.0,-999.0,26,-99.99,,,-99.99,PyWeather,2013-08-19 10:58:00,
2013-08-19 05:03:00,68.5,32.2,29.98,East,90,-999.0,-999.0,26,-99.99,,,-99.99,PyWeather,2013-08-19 11:03:00,
2013-08-19 05:08:00,68.5,32.2,29.98,East,90,-999.0,-999.0,26,-99.99,,,-99.99,PyWeather,2013-08-19 11:08:00,
2013-08-19 05:13:00,68.4,32.2,29.98,ENE,77,0.7,2.7,26,-99.99,,,-99.99,PyWeather,2013-08-19 11:13:00,
2013-08-19 05:18:00,68.4,32.2,29.98,ENE,77,0.7,2.7,26,-99.99,,,-99.99,PyWeather,2013-08-19 11:18:00,
2013-08-19 05:23:00,68.2,32.0,29.98,East,90,-999.0,-999.0,26,-99.99,,,-99.99,PyWeather,2013-08-19 11:23:00,
2013-08-19 05:28:00,68.2,32.0,29.98,East,90,-999.0,-999.0,26,-99.99,,,-99.99,PyWeather,2013-08-19 11:28:00,
2013-08-19 05:33:00,68.0,31.8,29.98,East,82,1.6,2.9,26,-99.99,,,-99.99,PyWeather,2013-08-19 11:33:00,
2013-08-19 05:38:00,68.0,31.8,29.98,East,82,1.6,2.9,26,-99.99,,,-99.99,PyWeather,2013-08-19 11:38:00,
2013-08-19 05:43:00,67.8,32.5,29.99,ENE,69,1.8,3.8,27,-99.99,,,-99.99,PyWeather,2013-08-19 11:43:00,
2013-08-19 05:48:00,67.8,32.5,29.99,ENE,69,1.8,3.8,27,-99.99,,,-99.99,PyWeather,2013-08-19 11:48:00,
2013-08-19 05:53:00,67.6,32.4,29.99,ENE,65,1.8,3.4,27,-99.99,,,-99.99,PyWeather,2013-08-19 11:53:00,
2013-08-19 05:58:00,67.6,32.4,29.99,ENE,65,1.8,3.4,27,-99.99,,,-99.99,PyWeather,2013-08-19 11:58:00,
2013-08-19 06:03:00,67.5,32.4,29.99,ENE,70,2.0,3.4,27,-99.99,,,-99.99,PyWeather,2013-08-19 12:03:00,
2013-08-19 06:08:00,67.5,32.4,29.99,ENE,70,2.0,3.4,27,-99.99,,,-99.99,PyWeather,2013-08-19 12:08:00,
2013-08-19 06:13:00,67.3,33.1,29.99,ENE,61,1.8,3.1,28,-99.99,,,-99.99,PyWeather,2013-08-19 12:13:00,
2013-08-19 06:18:00,67.3,33.1,29.99,ENE,61,1.8,3.1,28,-99.99,,,-99.99,PyWeather,2013-08-19 12:18:00,
2013-08-19 06:23:00,67.1,33.8,29.99,ENE,67,0.9,2.9,29,-99.99,,,-99.99,PyWeather,2013-08-19 12:23:00,
2013-08-19 06:28:00,67.1,33.8,29.99,ENE,67,0.9,2.9,29,-99.99,,,-99.99,PyWeather,2013-08-19 12:28:00,
2013-08-19 06:33:00,67.1,34.5,29.99,East,90,-999.0,-999.0,30,-99.99,,,-99.99,PyWeather,2013-08-19 12:33:00,
2013-08-19 06:38:00,67.1,34.5,29.99,East,90,-999.0,-999.0,30,-99.99,,,-99.99,PyWeather,2013-08-19 12:38:00,
2013-08-19 06:43:00,66.9,36.1,29.99,East,90,-999.0,-999.0,32,-99.99,,,-99.99,PyWeather,2013-08-19 12:43:00,
2013-08-19 06:48:00,66.9,36.1,29.99,East,90,-999.0,-999.0,32,-99.99,,,-99.99,PyWeather,2013-08-19 12:48:00,
2013-08-19 06:53:00,66.6,36.5,30.00,East,90,-999.0,-999.0,33,-99.99,,,-99.99,PyWeather,2013-08-19 12:53:00,
2013-08-19 06:58:00,66.6,36.5,30.00,East,90,-999.0,-999.0,33,-99.99,,,-99.99,PyWeather,2013-08-19 12:58:00,
2013-08-19 07:03:00,66.4,36.3,30.00,East,90,-999.0,-999.0,33,-99.99,,,-99.99,PyWeather,2013-08-19 13:03:00,
2013-08-19 07:08:00,66.4,36.3,30.00,East,90,-999.0,-999.0,33,-99.99,,,-99.99,PyWeather,2013-08-19 13:08:00,
2013-08-19 07:13:00,66.2,36.1,30.00,WSW,238,0.4,3.1,33,-99.99,,,-99.99,PyWeather,2013-08-19 13:13:00,
2013-08-19 07:18:00,66.2,36.1,30.00,WSW,238,0.4,3.1,33,-99.99,,,-99.99,PyWeather,2013-08-19 13:18:00,
2013-08-19 07:23:00,66.0,36.1,30.00,WSW,246,0.9,2.9,33,-99.99,,,-99.99,PyWeather,2013-08-19 13:23:00,
2013-08-19 07:28:00,66.0,36.1,30.00,WSW,246,0.9,2.9,33,-99.99,,,-99.99,PyWeather,2013-08-19 13:28:00,
2013-08-19 07:33:00,66.0,36.1,30.00,NNW,345,1.1,2.5,33,-99.99,,,-99.99,PyWeather,2013-08-19 13:33:00,
2013-08-19 07:38:00,66.0,36.1,30.00,NNW,345,1.1,2.5,33,-99.99,,,-99.99,PyWeather,2013-08-19 13:38:00,
2013-08-19 07:43:00,66.2,36.1,30.00,East,90,-999.0,-999.0,33,-99.99,,,-99.99,PyWeather,2013-08-19 13:43:00,
2013-08-19 07:48:00,66.2,36.1,30.00,East,90,-999.0,-999.0,33,-99.99,,,-99.99,PyWeather,2013-08-19 13:48:00,
2013-08-19 07:53:00,66.4,36.3,30.03,East,90,-999.0,-999.0,33,-99.99,,,-99.99,PyWeather,2013-08-19 13:53:00,
2013-08-19 07:58:00,66.4,36.3,30.03,East,90,-999.0,-999.0,33,-99.99,,,-99.99,PyWeather,2013-08-19 13:58:00,
2013-08-19 08:03:00,66.6,37.2,30.02,East,90,-999.0,-999.0,34,-99.99,,,-99.99,PyWeather,2013-08-19 14:03:00,
2013-08-19 08:08:00,66.6,37.2,30.02,East,90,-999.0,-999.0,34,-99.99,,,-99.99,PyWeather,2013-08-19 14:08:00,
2013-08-19 08:13:00,66.7,37.4,30.00,SSE,157,-999.0,1.6,34,-99.99,,,-99.99,PyWeather,2013-08-19 14:13:00,
2013-08-19 08:18:00,66.7,37.4,30.00,SSE,157,-999.0,1.6,34,-99.99,,,-99.99,PyWeather,2013-08-19 14:18:00,
2013-08-19 08:23:00,67.1,37.8,29.99,SSE,161,0.7,2.7,34,-99.99,,,-99.99,PyWeather,2013-08-19 14:23:00,
2013-08-19 08:28:00,67.1,37.8,29.99,SSE,161,0.7,2.7,34,-99.99,,,-99.99,PyWeather,2013-08-19 14:28:00,
2013-08-19 08:33:00,67.3,37.9,30.01,SSE,164,1.1,3.8,34,-99.99,,,-99.99,PyWeather,2013-08-19 14:33:00,
2013-08-19 08:38:00,67.3,37.9,30.01,SSE,164,1.1,3.8,34,-99.99,,,-99.99,PyWeather,2013-08-19 14:38:00,
2013-08-19 08:43:00,67.6,38.3,30.02,SE,142,1.3,3.6,34,-99.99,,,-99.99,PyWeather,2013-08-19 14:43:00,
2013-08-19 08:48:00,67.6,38.3,30.02,SE,142,1.3,3.6,34,-99.99,,,-99.99,PyWeather,2013-08-19 14:48:00,
2013-08-19 08:53:00,68.0,38.5,30.02,SSE,156,1.3,3.6,34,-99.99,,,-99.99,PyWeather,2013-08-19 14:53:00,
2013-08-19 08:58:00,68.0,38.5,30.02,SSE,156,1.3,3.6,34,-99.99,,,-99.99,PyWeather,2013-08-19 14:58:00,
2013-08-19 09:03:00,68.2,38.7,30.01,SE,134,1.3,4.3,34,-99.99,,,-99.99,PyWeather,2013-08-19 15:03:00,
2013-08-19 09:08:00,68.2,38.7,30.01,SE,134,1.3,4.3,34,-99.99,,,-99.99,PyWeather,2013-08-19 15:08:00,
2013-08-19 09:13:00,68.7,39.2,30.01,SSE,151,1.8,4.3,34,-99.99,,,-99.99,PyWeather,2013-08-19 15:13:00,
2013-08-19 09:18:00,68.7,39.2,30.01,SSE,151,1.8,4.3,34,-99.99,,,-99.99,PyWeather,2013-08-19 15:18:00,
2013-08-19 09:23:00,69.1,39.6,30.01,South,172,1.3,5.4,34,-99.99,,,-99.99,PyWeather,2013-08-19 15:23:00,
2013-08-19 09:28:00,69.1,39.6,30.01,South,172,1.3,5.4,34,-99.99,,,-99.99,PyWeather,2013-08-19 15:28:00,
2013-08-19 09:33:00,69.6,39.2,30.00,SSE,163,1.8,3.8,33,-99.99,,,-99.99,PyWeather,2013-08-19 15:33:00,
2013-08-19 09:38:00,69.6,39.2,30.00,SSE,163,1.8,3.8,33,-99.99,,,-99.99,PyWeather,2013-08-19 15:38:00,
2013-08-19 09:43:00,70.0,39.6,30.00,South,175,1.3,3.6,33,-99.99,,,-99.99,PyWeather,2013-08-19 15:43:00,
2013-08-19 09:48:00,70.0,39.6,30.00,South,175,1.3,3.6,33,-99.99,,,-99.99,PyWeather,2013-08-19 15:48:00,
2013-08-19 09:53:00,70.5,40.1,29.99,SSE,151,2.5,5.8,33,-99.99,,,-99.99,PyWeather,2013-08-19 15:53:00,
2013-08-19 09:58:00,70.5,40.1,29.99,SSE,151,2.5,5.8,33,-99.99,,,-99.99,PyWeather,2013-08-19 15:58:00,
2013-08-19 10:03:00,70.9,40.3,29.98,SSE,162,1.3,4.0,33,-99.99,,,-99.99,PyWeather,2013-08-19 16:03:00,
2013-08-19 10:08:00,70.9,40.3,29.98,SSE,162,1.3,4.0,33,-99.99,,,-99.99,PyWeather,2013-08-19 16:08:00,
2013-08-19 10:13:00,71.2,40.6,29.98,SE,131,1.8,3.4,33,-99.99,,,-99.99,PyWeather,2013-08-19 16:13:00,
2013-08-19 10:19:00,71.2,40.6,29.98,SE,131,1.8,3.4,33,-99.99,,,-99.99,PyWeather,2013-08-19 16:19:00,
2013-08-19 10:24:00,71.8,40.3,29.98,SE,131,1.3,4.0,32,-99.99,,,-99.99,PyWeather,2013-08-19 16:24:00,
2013-08-19 10:29:00,71.8,40.3,29.98,SE,131,1.3,4.0,32,-99.99,,,-99.99,PyWeather,2013-08-19 16:29:00,
2013-08-19 10:34:00,72.3,40.8,29.97,SSW,201,0.7,2.9,32,-99.99,,,-99.99,PyWeather,2013-08-19 16:34:00,
2013-08-19 10:39:00,72.3,40.8,29.97,SSW,201,0.7,2.9,32,-99.99,,,-99.99,PyWeather,2013-08-19 16:39:00,
2013-08-19 10:44:00,73.0,41.4,29.96,South,179,0.9,3.1,32,-99.99,,,-99.99,PyWeather,2013-08-19 16:44:00,
2013-08-19 10:49:00,73.0,41.4,29.96,South,179,0.9,3.1,32,-99.99,,,-99.99,PyWeather,2013-08-19 16:49:00,
2013-08-19 10:54:00,73.6,41.0,29.96,SE,125,2.0,4.3,31,-99.99,,,-99.99,PyWeather,2013-08-19 16:54:00,
2013-08-19 10:59:00,73.6,41.0,29.96,SE,125,2.0,4.3,31,-99.99,,,-99.99,PyWeather,2013-08-19 16:59:00,
2013-08-19 11:04:00,73.9,41.4,29.95,South,188,0.7,3.4,31,-99.99,,,-99.99,PyWeather,2013-08-19 17:04:00,
2013-08-19 11:09:00,73.9,41.4,29.95,South,188,0.7,3.4,31,-99.99,,,-99.99,PyWeather,2013-08-19 17:09:00,
2013-08-19 11:14:00,74.8,41.4,29.94,South,184,1.8,4.3,30,-99.99,,,-99.99,PyWeather,2013-08-19 17:14:00,
2013-08-19 11:19:00,74.8,41.4,29.94,South,184,1.8,4.3,30,-99.99,,,-99.99,PyWeather,2013-08-19 17:19:00,
2013-08-19 11:24:00,75.6,41.0,29.94,SE,133,2.2,5.8,29,-99.99,,,-99.99,PyWeather,2013-08-19 17:24:00,
2013-08-19 11:29:00,75.6,41.0,29.94,SE,133,2.2,5.8,29,-99.99,,,-99.99,PyWeather,2013-08-19 17:29:00,
2013-08-19 11:34:00,76.1,40.6,29.93,East,91,2.2,6.3,28,-99.99,,,-99.99,PyWeather,2013-08-19 17:34:00,
2013-08-19 11:39:00,76.1,40.6,29.93,East,91,2.2,6.3,28,-99.99,,,-99.99,PyWeather,2013-08-19 17:39:00,
2013-08-19 11:44:00,76.5,39.9,29.93,ESE,102,2.5,4.9,27,-99.99,,,-99.99,PyWeather,2013-08-19 17:44:00,
2013-08-19 11:49:00,76.5,39.9,29.93,ESE,102,2.5,4.9,27,-99.99,,,-99.99,PyWeather,2013-08-19 17:49:00,
2013-08-19 11:54:00,77.0,39.6,29.92,SE,137,2.5,4.9,26,-99.99,,,-99.99,PyWeather,2013-08-19 17:54:00,
2013-08-19 11:59:00,77.0,39.6,29.92,SE,137,2.5,4.9,26,-99.99,,,-99.99,PyWeather,2013-08-19 17:59:00,
2013-08-19 12:04:00,77.5,37.9,29.92,SE,128,3.1,7.4,24,-99.99,,,-99.99,PyWeather,2013-08-19 18:04:00,
2013-08-19 12:09:00,77.5,37.9,29.92,SE,128,3.1,7.4,24,-99.99,,,-99.99,PyWeather,2013-08-19 18:09:00,
2013-08-19 12:14:00,78.3,37.4,29.91,SE,130,3.6,7.6,23,-99.99,,,-99.99,PyWeather,2013-08-19 18:14:00,
2013-08-19 12:19:00,78.3,37.4,29.91,SE,130,3.6,7.6,23,-99.99,,,-99.99,PyWeather,2013-08-19 18:19:00,
2013-08-19 12:24:00,79.2,37.0,29.90,SSE,156,3.6,7.9,22,-99.99,,,-99.99,PyWeather,2013-08-19 18:24:00,
2013-08-19 12:29:00,79.2,37.0,29.90,SSE,156,3.6,7.9,22,-99.99,,,-99.99,PyWeather,2013-08-19 18:29:00,
2013-08-19 12:34:00,79.5,38.5,29.90,East,89,4.0,8.1,23,-99.99,,,-99.99,PyWeather,2013-08-19 18:34:00,
2013-08-19 12:39:00,79.5,38.5,29.90,East,89,4.0,8.1,23,-99.99,,,-99.99,PyWeather,2013-08-19 18:39:00,
2013-08-19 12:44:00,79.7,37.4,29.89,ESE,102,4.3,10.1,22,-99.99,,,-99.99,PyWeather,2013-08-19 18:44:00,
2013-08-19 12:49:00,79.7,37.4,29.89,ESE,102,4.3,10.1,22,-99.99,,,-99.99,PyWeather,2013-08-19 18:49:00,
2013-08-19 12:54:00,80.1,36.7,29.89,ESE,122,4.0,8.5,21,-99.99,,,-99.99,PyWeather,2013-08-19 18:54:00,
2013-08-19 12:59:00,80.1,36.7,29.89,ESE,122,4.0,8.5,21,-99.99,,,-99.99,PyWeather,2013-08-19 18:59:00,
2013-08-19 13:04:00,80.6,37.0,29.87,SE,135,3.6,7.6,21,-99.99,,,-99.99,PyWeather,2013-08-19 19:04:00,
2013-08-19 13:09:00,80.6,37.0,29.87,SE,135,3.6,7.6,21,-99.99,,,-99.99,PyWeather,2013-08-19 19:09:00,
2013-08-19 13:14:00,81.0,37.4,29.85,SE,144,2.9,7.6,21,-99.99,,,-99.99,PyWeather,2013-08-19 19:14:00,
2013-08-19 13:19:00,81.0,37.4,29.85,SE,144,2.9,7.6,21,-99.99,,,-99.99,PyWeather,2013-08-19 19:19:00,
2013-08-19 13:24:00,81.9,36.9,29.84,SSW,193,2.2,3.8,20,-99.99,,,-99.99,PyWeather,2013-08-19 19:24:00,
2013-08-19 13:29:00,81.9,36.9,29.84,SSW,193,2.2,3.8,20,-99.99,,,-99.99,PyWeather,2013-08-19 19:29:00,
2013-08-19 13:34:00,82.2,37.2,29.83,South,175,2.0,7.6,20,-99.99,,,-99.99,PyWeather,2013-08-19 19:34:00,
2013-08-19 13:39:00,82.2,37.2,29.83,South,175,2.0,7.6,20,-99.99,,,-99.99,PyWeather,2013-08-19 19:39:00,
2013-08-19 13:44:00,82.8,36.3,29.83,ESE,120,2.9,6.5,19,-99.99,,,-99.99,PyWeather,2013-08-19 19:44:00,
2013-08-19 13:49:00,82.8,36.3,29.83,ESE,120,2.9,6.5,19,-99.99,,,-99.99,PyWeather,2013-08-19 19:49:00,
2013-08-19 13:54:00,83.3,36.7,29.82,SSE,153,2.9,8.1,19,-99.99,,,-99.99,PyWeather,2013-08-19 19:54:00,
2013-08-19 13:59:00,83.3,36.7,29.82,SSE,153,2.9,8.1,19,-99.99,,,-99.99,PyWeather,2013-08-19 19:59:00,
2013-08-19 14:04:00,84.0,36.0,29.81,WSW,243,3.6,6.7,18,-99.99,,,-99.99,PyWeather,2013-08-19 20:04:00,
2013-08-19 14:09:00,84.0,36.0,29.81,WSW,243,3.6,6.7,18,-99.99,,,-99.99,PyWeather,2013-08-19 20:09:00,
2013-08-19 14:14:00,84.6,36.3,29.81,WNW,289,2.0,3.6,18,-99.99,,,-99.99,PyWeather,2013-08-19 20:14:00,
2013-08-19 14:19:00,84.6,36.3,29.81,WNW,289,2.0,3.6,18,-99.99,,,-99.99,PyWeather,2013-08-19 20:19:00,
2013-08-19 14:24:00,84.7,36.5,29.81,WSW,249,1.8,4.3,18,-99.99,,,-99.99,PyWeather,2013-08-19 20:24:00,
2013-08-19 14:29:00,84.7,36.5,29.81,WSW,249,1.8,4.3,18,-99.99,,,-99.99,PyWeather,2013-08-19 20:29:00,
2013-08-19 14:34:00,85.3,37.0,29.80,SSW,205,2.2,4.9,18,-99.99,,,-99.99,PyWeather,2013-08-19 20:34:00,
2013-08-19 14:39:00,85.3,37.0,29.80,SSW,205,2.2,4.9,18,-99.99,,,-99.99,PyWeather,2013-08-19 20:39:00,
2013-08-19 14:44:00,85.8,34.3,29.80,WSW,237,2.7,7.2,16,-99.99,,,-99.99,PyWeather,2013-08-19 20:44:00,
2013-08-19 14:49:00,85.8,34.3,29.80,WSW,237,2.7,7.2,16,-99.99,,,-99.99,PyWeather,2013-08-19 20:49:00,
2013-08-19 14:54:00,86.4,33.3,29.79,SW,216,2.0,4.9,15,-99.99,,,-99.99,PyWeather,2013-08-19 20:54:00,
2013-08-19 14:59:00,86.4,33.3,29.79,SW,216,2.0,4.9,15,-99.99,,,-99.99,PyWeather,2013-08-19 20:59:00,
2013-08-19 15:04:00,86.9,35.2,29.77,South,186,2.5,7.9,16,-99.99,,,-99.99,PyWeather,2013-08-19 21:04:00,
2013-08-19 15:09:00,86.9,35.2,29.77,South,186,2.5,7.9,16,-99.99,,,-99.99,PyWeather,2013-08-19 21:09:00,
2013-08-19 15:14:00,87.4,35.8,29.75,SE,136,3.4,8.1,16,-99.99,,,-99.99,PyWeather,2013-08-19 21:14:00,
2013-08-19 15:19:00,87.4,35.8,29.75,SE,136,3.4,8.1,16,-99.99,,,-99.99,PyWeather,2013-08-19 21:19:00,
2013-08-19 15:24:00,87.6,37.4,29.74,ESE,121,3.6,6.3,17,-99.99,,,-99.99,PyWeather,2013-08-19 21:24:00,
2013-08-19 15:34:00,88.3,34.9,29.74,SSW,203,2.9,6.3,15,-99.99,,,-99.99,PyWeather,2013-08-19 21:34:00,
2013-08-19 15:39:00,88.3,34.9,29.74,SSW,203,2.9,6.3,15,-99.99,,,-99.99,PyWeather,2013-08-19 21:39:00,
2013-08-19 15:44:00,88.3,34.9,29.74,West,277,2.7,4.9,15,-99.99,,,-99.99,PyWeather,2013-08-19 21:44:00,
2013-08-19 15:49:00,88.3,34.9,29.74,West,277,2.7,4.9,15,-99.99,,,-99.99,PyWeather,2013-08-19 21:49:00,
2013-08-19 15:54:00,88.5,33.3,29.73,West,261,2.0,5.8,14,-99.99,,,-99.99,PyWeather,2013-08-19 21:54:00,
2013-08-19 15:59:00,88.5,33.3,29.73,West,261,2.0,5.8,14,-99.99,,,-99.99,PyWeather,2013-08-19 21:59:00,
2013-08-19 16:04:00,88.9,35.2,29.73,North,11,2.7,6.1,15,-99.99,,,-99.99,PyWeather,2013-08-19 22:04:00,
2013-08-19 16:09:00,88.9,35.2,29.73,North,11,2.7,6.1,15,-99.99,,,-99.99,PyWeather,2013-08-19 22:09:00,
2013-08-19 16:14:00,89.2,35.6,29.72,NNW,338,2.5,6.1,15,-99.99,,,-99.99,PyWeather,2013-08-19 22:14:00,
2013-08-19 16:19:00,89.2,35.6,29.72,NNW,338,2.5,6.1,15,-99.99,,,-99.99,PyWeather,2013-08-19 22:19:00,
2013-08-19 16:24:00,89.6,32.2,29.72,ESE,122,1.3,3.1,13,-99.99,,,-99.99,PyWeather,2013-08-19 22:24:00,
2013-08-19 16:29:00,89.6,32.2,29.72,ESE,122,1.3,3.1,13,-99.99,,,-99.99,PyWeather,2013-08-19 22:29:00,
2013-08-19 16:34:00,90.3,30.7,29.70,ESE,122,2.7,6.1,12,-99.99,,,-99.99,PyWeather,2013-08-19 22:34:00,
2013-08-19 16:39:00,90.3,30.7,29.70,ESE,122,2.7,6.1,12,-99.99,,,-99.99,PyWeather,2013-08-19 22:39:00,
2013-08-19 16:44:00,91.4,29.5,29.68,South,184,2.7,5.6,11,-99.99,,,-99.99,PyWeather,2013-08-19 22:44:00,
2013-08-19 16:49:00,91.4,29.5,29.68,South,184,2.7,5.6,11,-99.99,,,-99.99,PyWeather,2013-08-19 22:49:00,
2013-08-19 16:54:00,93.4,31.1,29.69,SW,229,2.5,4.9,11,-99.99,,,-99.99,PyWeather,2013-08-19 22:54:00,
2013-08-19 16:59:00,93.4,31.1,29.69,SW,229,2.5,4.9,11,-99.99,,,-99.99,PyWeather,2013-08-19 22:59:00,
2013-08-19 17:04:00,93.6,31.1,29.66,SW,231,2.2,5.4,11,-99.99,,,-99.99,PyWeather,2013-08-19 23:04:00,
2013-08-19 17:09:00,93.6,31.1,29.66,SW,231,2.2,5.4,11,-99.99,,,-99.99,PyWeather,2013-08-19 23:09:00,
2013-08-19 17:14:00,93.6,31.1,29.65,South,174,1.8,6.1,11,-99.99,,,-99.99,PyWeather,2013-08-19 23:14:00,
2013-08-19 17:19:00,93.6,31.1,29.65,South,174,1.8,6.1,11,-99.99,,,-99.99,PyWeather,2013-08-19 23:19:00,
2013-08-19 17:24:00,93.9,31.5,29.65,ESE,114,1.6,4.9,11,-99.99,,,-99.99,PyWeather,2013-08-19 23:24:00,
2013-08-19 17:29:00,93.9,31.5,29.65,ESE,114,1.6,4.9,11,-99.99,,,-99.99,PyWeather,2013-08-19 23:29:00,
2013-08-19 17:34:00,94.1,31.6,29.65,ENE,62,2.0,3.8,11,-99.99,,,-99.99,PyWeather,2013-08-19 23:34:00,
2013-08-19 17:39:00,94.1,31.6,29.65,ENE,62,2.0,3.8,11,-99.99,,,-99.99,PyWeather,2013-08-19 23:39:00,
2013-08-19 17:44:00,93.7,31.3,29.65,SSE,168,1.3,5.8,11,-99.99,,,-99.99,PyWeather,2013-08-19 23:44:00,
2013-08-19 17:49:00,93.7,31.3,29.65,SSE,168,1.3,5.8,11,-99.99,,,-99.99,PyWeather,2013-08-19 23:49:00,
2013-08-19 17:54:00,93.7,31.3,29.65,SE,144,2.0,4.9,11,-99.99,,,-99.99,PyWeather,2013-08-19 23:54:00,
2013-08-19 17:59:00,93.7,31.3,29.65,SE,144,2.0,4.9,11,-99.99,,,-99.99,PyWeather,2013-08-19 23:59:00,
2013-08-19 18:04:00,93.7,31.3,29.65,ESE,116,1.6,4.0,11,-99.99,,,-99.99,PyWeather,2013-08-20 00:04:00,
2013-08-19 18:09:00,93.7,31.3,29.65,ESE,116,1.6,4.0,11,-99.99,,,-99.99,PyWeather,2013-08-20 00:09:00,
2013-08-19 18:14:00,93.9,31.5,29.65,SSE,159,1.1,3.4,11,-99.99,,,-99.99,PyWeather,2013-08-20 00:14:00,
2013-08-19 18:19:00,93.9,31.5,29.65,SSE,159,1.1,3.4,11,-99.99,,,-99.99,PyWeather,2013-08-20 00:19:00,
2013-08-19 18:24:00,94.3,31.6,29.64,SSE,165,0.2,4.3,11,-99.99,,,-99.99,PyWeather,2013-08-20 00:24:00,
2013-08-19 18:29:00,94.3,31.6,29.64,SSE,165,0.2,4.3,11,-99.99,,,-99.99,PyWeather,2013-08-20 00:29:00,
2013-08-19 18:34:00,94.5,29.5,29.64,SSE,157,0.7,2.9,10,-99.99,,,-99.99,PyWeather,2013-08-20 00:34:00,
2013-08-19 18:39:00,94.5,29.5,29.64,SSE,157,0.7,2.9,10,-99.99,,,-99.99,PyWeather,2013-08-20 00:39:00,
2013-08-19 18:44:00,95.0,32.2,29.64,SSE,154,0.9,2.9,11,-99.99,,,-99.99,PyWeather,2013-08-20 00:44:00,
2013-08-19 18:49:00,95.0,32.2,29.64,SSE,154,0.9,2.9,11,-99.99,,,-99.99,PyWeather,2013-08-20 00:49:00,
2013-08-19 18:54:00,95.0,32.2,29.64,SSE,152,0.2,2.0,11,-99.99,,,-99.99,PyWeather,2013-08-20 00:54:00,
2013-08-19 19:00:00,95.0,32.2,29.64,SSE,152,0.2,2.0,11,-99.99,,,-99.99,PyWeather,2013-08-20 01:00:00,
2013-08-19 19:05:00,94.1,31.6,29.64,South,172,0.9,3.6,11,-99.99,,,-99.99,PyWeather,2013-08-20 01:05:00,
2013-08-19 19:10:00,94.1,31.6,29.64,South,172,0.9,3.6,11,-99.99,,,-99.99,PyWeather,2013-08-20 01:10:00,
2013-08-19 19:15:00,92.5,30.4,29.67,SSW,195,2.9,6.5,11,-99.99,,,-99.99,PyWeather,2013-08-20 01:15:00,
2013-08-19 19:20:00,92.5,30.4,29.67,SSW,195,2.9,6.5,11,-99.99,,,-99.99,PyWeather,2013-08-20 01:20:00,
2013-08-19 19:25:00,90.7,31.1,29.71,South,186,3.4,6.3,12,-99.99,,,-99.99,PyWeather,2013-08-20 01:25:00,
2013-08-19 19:30:00,90.7,31.1,29.71,South,186,3.4,6.3,12,-99.99,,,-99.99,PyWeather,2013-08-20 01:30:00,
2013-08-19 19:35:00,89.6,30.2,29.70,SSW,193,2.9,6.3,12,-99.99,,,-99.99,PyWeather,2013-08-20 01:35:00,
2013-08-19 19:40:00,89.6,30.2,29.70,SSW,193,2.9,6.3,12,-99.99,,,-99.99,PyWeather,2013-08-20 01:40:00,
2013-08-19 19:45:00,88.7,31.5,29.70,South,180,2.9,5.6,13,-99.99,,,-99.99,PyWeather,2013-08-20 01:45:00,
2013-08-19 19:50:00,88.7,31.5,29.70,South,180,2.9,5.6,13,-99.99,,,-99.99,PyWeather,2013-08-20 01:50:00,
2013-08-19 19:55:00,88.0,30.9,29.70,South,185,2.5,3.6,13,-99.99,,,-99.99,PyWeather,2013-08-20 01:55:00,
2013-08-19 20:00:00,88.0,30.9,29.70,South,185,2.5,3.6,13,-99.99,,,-99.99,PyWeather,2013-08-20 02:00:00,
2013-08-19 20:05:00,87.3,30.4,29.73,South,179,2.0,2.9,13,-99.99,,,-99.99,PyWeather,2013-08-20 02:05:00,
2013-08-19 20:10:00,87.3,30.4,29.73,South,179,2.0,2.9,13,-99.99,,,-99.99,PyWeather,2013-08-20 02:10:00,
2013-08-19 20:15:00,86.9,32.0,29.75,South,169,1.6,4.3,14,-99.99,,,-99.99,PyWeather,2013-08-20 02:15:00,
2013-08-19 20:20:00,86.9,32.0,29.75,South,169,1.6,4.3,14,-99.99,,,-99.99,PyWeather,2013-08-20 02:20:00,
2013-08-19 20:25:00,86.5,35.1,29.75,SSE,167,1.6,3.8,16,-99.99,,,-99.99,PyWeather,2013-08-20 02:25:00,
2013-08-19 20:30:00,86.5,35.1,29.75,SSE,167,1.6,3.8,16,-99.99,,,-99.99,PyWeather,2013-08-20 02:30:00,
2013-08-19 20:35:00,86.0,34.5,29.76,South,171,1.8,5.4,16,-99.99,,,-99.99,PyWeather,2013-08-20 02:35:00,
2013-08-19 20:40:00,86.0,34.5,29.76,South,171,1.8,5.4,16,-99.99,,,-99.99,PyWeather,2013-08-20 02:40:00,
2013-08-19 20:45:00,85.5,34.2,29.76,South,170,2.0,4.0,16,-99.99,,,-99.99,PyWeather,2013-08-20 02:45:00,
2013-08-19 20:50:00,85.5,34.2,29.76,South,170,2.0,4.0,16,-99.99,,,-99.99,PyWeather,2013-08-20 02:50:00,
2013-08-19 20:55:00,84.9,33.6,29.77,South,185,0.9,2.5,16,-99.99,,,-99.99,PyWeather,2013-08-20 02:55:00,
2013-08-19 21:00:00,84.9,33.6,29.77,South,185,0.9,2.5,16,-99.99,,,-99.99,PyWeather,2013-08-20 03:00:00,
2013-08-19 21:05:00,84.6,33.4,29.78,East,90,-999.0,2.5,16,-99.99,,,-99.99,PyWeather,2013-08-20 03:05:00,
2013-08-19 21:10:00,84.6,33.4,29.78,East,90,-999.0,2.5,16,-99.99,,,-99.99,PyWeather,2013-08-20 03:10:00,
2013-08-19 21:15:00,83.8,32.9,29.78,South,179,2.7,4.0,16,-99.99,,,-99.99,PyWeather,2013-08-20 03:15:00,
2013-08-19 21:20:00,83.8,32.9,29.78,South,179,2.7,4.0,16,-99.99,,,-99.99,PyWeather,2013-08-20 03:20:00,
2013-08-19 21:25:00,83.1,33.8,29.79,South,172,3.1,4.9,17,-99.99,,,-99.99,PyWeather,2013-08-20 03:25:00,
2013-08-19 21:30:00,83.1,33.8,29.79,South,172,3.1,4.9,17,-99.99,,,-99.99,PyWeather,2013-08-20 03:30:00,
2013-08-19 21:35:00,82.8,36.3,29.79,South,183,2.9,4.0,19,-99.99,,,-99.99,PyWeather,2013-08-20 03:35:00,
2013-08-19 21:40:00,82.8,36.3,29.79,South,183,2.9,4.0,19,-99.99,,,-99.99,PyWeather,2013-08-20 03:40:00,
2013-08-19 21:45:00,82.4,36.0,29.80,SSW,192,2.2,2.9,19,-99.99,,,-99.99,PyWeather,2013-08-20 03:45:00,
2013-08-19 21:50:00,82.4,36.0,29.80,SSW,192,2.2,2.9,19,-99.99,,,-99.99,PyWeather,2013-08-20 03:50:00,
2013-08-19 21:55:00,82.0,35.8,29.80,South,177,1.8,2.7,19,-99.99,,,-99.99,PyWeather,2013-08-20 03:55:00,
2013-08-19 22:00:00,82.0,35.8,29.80,South,177,1.8,2.7,19,-99.99,,,-99.99,PyWeather,2013-08-20 04:00:00,
2013-08-19 22:05:00,81.7,35.4,29.80,SSE,162,2.0,3.4,19,-99.99,,,-99.99,PyWeather,2013-08-20 04:05:00,
2013-08-19 22:10:00,81.7,35.4,29.80,SSE,162,2.0,3.4,19,-99.99,,,-99.99,PyWeather,2013-08-20 04:10:00,
2013-08-19 22:15:00,81.5,35.2,29.80,South,180,0.2,2.5,19,-99.99,,,-99.99,PyWeather,2013-08-20 04:15:00,
2013-08-19 22:20:00,81.5,35.2,29.80,South,180,0.2,2.5,19,-99.99,,,-99.99,PyWeather,2013-08-20 04:20:00,
2013-08-19 22:25:00,81.0,34.9,29.81,SSW,193,2.0,2.9,19,-99.99,,,-99.99,PyWeather,2013-08-20 04:25:00,
2013-08-19 22:30:00,81.0,34.9,29.81,SSW,193,2.0,2.9,19,-99.99,,,-99.99,PyWeather,2013-08-20 04:30:00,
2013-08-19 22:35:00,80.4,35.6,29.82,South,188,2.2,3.8,20,-99.99,,,-99.99,PyWeather,2013-08-20 04:35:00,
2013-08-19 22:40:00,80.4,35.6,29.82,South,188,2.2,3.8,20,-99.99,,,-99.99,PyWeather,2013-08-20 04:40:00,
2013-08-19 22:45:00,79.7,35.1,29.82,South,189,2.7,3.6,20,-99.99,,,-99.99,PyWeather,2013-08-20 04:45:00,
2013-08-19 22:50:00,79.7,35.1,29.82,South,189,2.7,3.6,20,-99.99,,,-99.99,PyWeather,2013-08-20 04:50:00,
2013-08-19 22:55:00,79.3,34.7,29.83,South,189,2.5,3.1,20,-99.99,,,-99.99,PyWeather,2013-08-20 04:55:00,
2013-08-19 23:00:00,79.3,34.7,29.83,South,189,2.5,3.1,20,-99.99,,,-99.99,PyWeather,2013-08-20 05:00:00,
2013-08-19 23:05:00,79.0,34.5,29.83,SSE,162,2.5,4.9,20,-99.99,,,-99.99,PyWeather,2013-08-20 05:05:00,
2013-08-19 23:10:00,79.0,34.5,29.83,SSE,162,2.5,4.9,20,-99.99,,,-99.99,PyWeather,2013-08-20 05:10:00,
2013-08-19 23:15:00,78.6,34.2,29.83,SSW,193,2.0,4.0,20,-99.99,,,-99.99,PyWeather,2013-08-20 05:15:00,
2013-08-19 23:20:00,78.6,34.2,29.83,SSW,193,2.0,4.0,20,-99.99,,,-99.99,PyWeather,2013-08-20 05:20:00,
2013-08-19 23:25:00,78.4,34.0,29.84,SSW,202,2.2,3.4,20,-99.99,,,-99.99,PyWeather,2013-08-20 05:25:00,
2013-08-19 23:30:00,78.4,34.0,29.84,SSW,202,2.2,3.4,20,-99.99,,,-99.99,PyWeather,2013-08-20 05:30:00,
2013-08-19 23:35:00,78.3,33.8,29.84,South,188,1.8,2.9,20,-99.99,,,-99.99,PyWeather,2013-08-20 05:35:00,
2013-08-19 23:40:00,78.3,33.8,29.84,South,188,1.8,2.9,20,-99.99,,,-99.99,PyWeather,2013-08-20 05:40:00,
2013-08-19 23:45:00,78.1,33.8,29.84,SSE,167,1.6,4.3,20,-99.99,,,-99.99,PyWeather,2013-08-20 05:45:00,
2013-08-19 23:50:00,78.1,33.8,29.84,SSE,167,1.6,4.3,20,-99.99,,,-99.99,PyWeather,2013-08-20 05:50:00,
2013-08-19 23:55:00,78.1,33.8,29.84,SSE,147,3.6,5.8,20,-99.99,,,-99.99,PyWeather,2013-08-20 05:55:00,